When you browse on this site, cookies collect data to enhance your experience and personalize the content and advertising you see.
Visit our Privacy Policy to learn more. By continuing to use the site, you agree to this use of cookies and data.
  • In France
  • List of Countries
  • For 7 days
  • Water Temperature
  • Satellite Maps
  • Weather Map
  • Weather Widgets
  • user-avatar
    Login

    Hourly Weather Abbevillers

    Today, 18 July, Thursday

    Time Temperature Precipitation Wind Pressure Humidity
    00:00 +15°C° 0 mm 1 mps 711 mmHg 71%
    01:00 +15°C° 0 mm 1 mps 711 mmHg 68%
    02:00 +16°C° 0 mm 1 mps 711 mmHg 65%
    03:00 +16°C° 0 mm 1 mps 711 mmHg 63%
    04:00 +18°C° 0 mm 1 mps 711 mmHg 65%
    05:00 +18°C° 0 mm 1 mps 711 mmHg 67%
    06:00 +19°C° 0 mm 1 mps 712 mmHg 67%
    07:00 +21°C° 0 mm 1 mps 712 mmHg 63%
    08:00 +21°C° 0 mm 2 mps 712 mmHg 59%
    09:00 +24°C° 0 mm 2 mps 713 mmHg 55%
    10:00 +24°C° 0 mm 2 mps 713 mmHg 54%
    11:00 +24°C° 0 mm 2 mps 712 mmHg 53%
    12:00 +25°C° 0 mm 2 mps 712 mmHg 52%
    13:00 +25°C° 0 mm 2 mps 712 mmHg 52%
    14:00 +25°C° 0 mm 2 mps 713 mmHg 52%
    15:00 +26°C° 0 mm 2 mps 713 mmHg 52%
    16:00 +24°C° 0.2 mm 2 mps 713 mmHg 63%
    17:00 +23°C° 0.2 mm 2 mps 713 mmHg 73%
    18:00 +20°C° 0.2 mm 2 mps 712 mmHg 84%
    19:00 +19°C° 0.1 mm 2 mps 713 mmHg 86%
    20:00 +18°C° 0.1 mm 2 mps 713 mmHg 88%
    21:00 +16°C° 0.1 mm 1 mps 713 mmHg 90%
    22:00 +16°C° 0 mm 1 mps 713 mmHg 90%
    23:00 +16°C° 0 mm 1 mps 713 mmHg 90%

    Tomorrow, 19 July, Friday

    Time Temperature Precipitation Wind Pressure Humidity
    00:00 +15°C° 0 mm 1 mps 713 mmHg 91%
    01:00 +15°C° 0 mm 1 mps 713 mmHg 92%
    02:00 +15°C° 0 mm 1 mps 713 mmHg 92%
    03:00 +14°C° 0 mm 1 mps 713 mmHg 93%
    04:00 +15°C° 0 mm 1 mps 713 mmHg 92%
    05:00 +16°C° 0 mm 1 mps 714 mmHg 91%
    06:00 +18°C° 0 mm 1 mps 714 mmHg 90%
    07:00 +20°C° 0 mm 1 mps 714 mmHg 82%
    08:00 +21°C° 0 mm 1 mps 714 mmHg 73%
    09:00 +23°C° 0 mm 2 mps 715 mmHg 65%
    10:00 +24°C° 0 mm 2 mps 714 mmHg 62%
    11:00 +25°C° 0 mm 2 mps 714 mmHg 59%
    12:00 +25°C° 0 mm 2 mps 714 mmHg 55%
    13:00 +25°C° 0 mm 2 mps 714 mmHg 56%
    14:00 +25°C° 0 mm 3 mps 714 mmHg 56%
    15:00 +26°C° 0 mm 3 mps 714 mmHg 57%
    16:00 +25°C° 0 mm 2 mps 714 mmHg 63%
    17:00 +24°C° 0 mm 1 mps 714 mmHg 68%
    18:00 +23°C° 0 mm 1 mps 714 mmHg 74%
    19:00 +22°C° 0 mm 1 mps 714 mmHg 78%
    20:00 +20°C° 0 mm 1 mps 714 mmHg 81%
    21:00 +18°C° 0 mm 1 mps 713 mmHg 85%
    22:00 +18°C° 0 mm 1 mps 713 mmHg 86%
    23:00 +16°C° 0 mm 1 mps 713 mmHg 87%

    Day after tomorrow, 20 July, Saturday

    Time Temperature Precipitation Wind Pressure Humidity
    00:00 +16°C° 0 mm 1 mps 713 mmHg 88%
    01:00 +16°C° 0 mm 1 mps 713 mmHg 88%
    02:00 +16°C° 0 mm 1 mps 713 mmHg 89%
    03:00 +16°C° 0 mm 1 mps 713 mmHg 89%
    04:00 +18°C° 0 mm 1 mps 713 mmHg 87%
    05:00 +19°C° 0 mm 1 mps 713 mmHg 84%
    06:00 +20°C° 0 mm 1 mps 713 mmHg 81%
    07:00 +22°C° 0 mm 1 mps 714 mmHg 73%
    08:00 +24°C° 0 mm 1 mps 714 mmHg 65%
    09:00 +26°C° 0 mm 1 mps 714 mmHg 57%
    10:00 +27°C° 0 mm 3 mps 714 mmHg 53%
    11:00 +28°C° 0 mm 4 mps 715 mmHg 48%
    12:00 +30°C° 0 mm 5 mps 715 mmHg 43%
    13:00 +30°C° 0 mm 5 mps 715 mmHg 44%
    14:00 +30°C° 0 mm 4 mps 715 mmHg 45%
    15:00 +30°C° 0 mm 4 mps 714 mmHg 46%
    16:00 +28°C° 0 mm 3 mps 714 mmHg 53%
    17:00 +27°C° 0 mm 2 mps 714 mmHg 60%
    18:00 +26°C° 0 mm 2 mps 714 mmHg 67%
    19:00 +24°C° 0.2 mm 2 mps 715 mmHg 71%
    20:00 +23°C° 0.2 mm 2 mps 715 mmHg 74%
    21:00 +20°C° 0.2 mm 2 mps 715 mmHg 77%
    22:00 +19°C° 0.5 mm 2 mps 715 mmHg 82%
    23:00 +19°C° 0.5 mm 2 mps 715 mmHg 87%

    21 July, Sunday

    Time Temperature Precipitation Wind Pressure Humidity
    00:00 +18°C° 0.5 mm 2 mps 716 mmHg 92%
    01:00 +18°C° 0.2 mm 2 mps 716 mmHg 93%
    02:00 +17°C° 0.2 mm 2 mps 716 mmHg 94%
    03:00 +17°C° 0.2 mm 2 mps 716 mmHg 95%
    04:00 +19°C° 0 mm 1 mps 717 mmHg 94%
    05:00 +20°C° 0 mm 1 mps 717 mmHg 94%
    06:00 +20°C° 0 mm 1 mps 717 mmHg 93%
    07:00 +22°C° 0 mm 1 mps 718 mmHg 84%
    08:00 +24°C° 0 mm 1 mps 718 mmHg 76%
    09:00 +26°C° 0 mm 2 mps 719 mmHg 67%
    10:00 +27°C° 0 mm 2 mps 719 mmHg 63%
    11:00 +28°C° 0 mm 3 mps 719 mmHg 59%
    12:00 +29°C° 0 mm 3 mps 719 mmHg 55%
    13:00 +29°C° 0.1 mm 3 mps 719 mmHg 55%
    14:00 +29°C° 0.1 mm 3 mps 719 mmHg 55%
    15:00 +29°C° 0.1 mm 3 mps 719 mmHg 55%
    16:00 +28°C° 0 mm 2 mps 718 mmHg 60%
    17:00 +27°C° 0 mm 1 mps 718 mmHg 66%
    18:00 +26°C° 0 mm 1 mps 718 mmHg 72%
    19:00 +24°C° 0 mm 1 mps 718 mmHg 76%
    20:00 +23°C° 0 mm 1 mps 719 mmHg 80%
    21:00 +21°C° 0 mm 1 mps 719 mmHg 84%
    22:00 +20°C° 0 mm 1 mps 719 mmHg 85%
    23:00 +20°C° 0 mm 1 mps 719 mmHg 87%

    22 July, Monday

    Time Temperature Precipitation Wind Pressure Humidity
    00:00 +19°C° 0 mm 1 mps 719 mmHg 88%
    01:00 +19°C° 0 mm 1 mps 718 mmHg 88%
    02:00 +19°C° 0 mm 1 mps 718 mmHg 88%
    03:00 +19°C° 0 mm 1 mps 718 mmHg 88%
    04:00 +20°C° 0 mm 1 mps 719 mmHg 87%
    05:00 +21°C° 0 mm 1 mps 719 mmHg 85%
    06:00 +21°C° 0 mm 1 mps 719 mmHg 83%
    07:00 +24°C° 0 mm 2 mps 719 mmHg 77%
    08:00 +26°C° 0 mm 2 mps 719 mmHg 70%
    09:00 +28°C° 0 mm 2 mps 720 mmHg 64%
    10:00 +29°C° 0 mm 2 mps 719 mmHg 61%
    11:00 +30°C° 0 mm 2 mps 719 mmHg 58%
    12:00 +31°C° 0 mm 2 mps 719 mmHg 55%
    13:00 +31°C° 0 mm 2 mps 719 mmHg 56%
    14:00 +31°C° 0 mm 2 mps 719 mmHg 57%
    15:00 +31°C° 0 mm 2 mps 718 mmHg 57%
    16:00 +30°C° 0.2 mm 2 mps 718 mmHg 65%
    17:00 +28°C° 0.2 mm 2 mps 718 mmHg 73%
    18:00 +27°C° 0.2 mm 2 mps 718 mmHg 80%
    19:00 +26°C° 0 mm 2 mps 718 mmHg 82%
    20:00 +24°C° 0 mm 1 mps 718 mmHg 84%
    21:00 +22°C° 0 mm 1 mps 718 mmHg 86%
    22:00 +22°C° 0 mm 1 mps 718 mmHg 87%
    23:00 +22°C° 0 mm 1 mps 718 mmHg 87%

    23 July, Tuesday

    Time Temperature Precipitation Wind Pressure Humidity
    00:00 +21°C° 0 mm 1 mps 717 mmHg 87%
    01:00 +21°C° 0 mm 1 mps 717 mmHg 88%
    02:00 +21°C° 0 mm 1 mps 717 mmHg 88%
    03:00 +20°C° 0 mm 1 mps 717 mmHg 89%
    04:00 +21°C° 0 mm 1 mps 717 mmHg 88%
    05:00 +22°C° 0 mm 1 mps 717 mmHg 86%
    06:00 +23°C° 0 mm 1 mps 717 mmHg 85%
    07:00 +25°C° 0 mm 1 mps 717 mmHg 78%
    08:00 +27°C° 0 mm 2 mps 717 mmHg 70%
    09:00 +29°C° 0 mm 2 mps 717 mmHg 63%
    10:00 +30°C° 0 mm 2 mps 717 mmHg 59%
    11:00 +32°C° 0 mm 2 mps 717 mmHg 54%
    12:00 +34°C° 0 mm 2 mps 717 mmHg 50%
    13:00 +34°C° 0 mm 2 mps 716 mmHg 50%
    14:00 +34°C° 0 mm 2 mps 716 mmHg 50%
    15:00 +34°C° 0 mm 2 mps 716 mmHg 50%
    16:00 +31°C° 0 mm 2 mps 715 mmHg 57%
    17:00 +30°C° 0 mm 2 mps 715 mmHg 65%
    18:00 +29°C° 0 mm 1 mps 715 mmHg 73%
    19:00 +27°C° 0 mm 1 mps 715 mmHg 75%
    20:00 +25°C° 0 mm 1 mps 715 mmHg 77%
    21:00 +24°C° 0 mm 1 mps 715 mmHg 79%
    22:00 +23°C° 0 mm 1 mps 715 mmHg 81%
    23:00 +23°C° 0 mm 1 mps 715 mmHg 82%
    Show more